Time,TemperatureF,DewpointF,PressureIn,WindDirection,WindDirectionDegrees,WindSpeedMPH,WindSpeedGustMPH,Humidity,HourlyPrecipIn,Conditions,Clouds,dailyrainin,SoftwareType,DateUTC
2013-01-23 00:05:00,46.5,39.7,30.05,NNW,329,1.1,1.1,77,0.00,CLR,,0.00,WeatherDisplay:10.37,2013-01-23 08:05:00,
2013-01-23 00:10:00,46.5,39.7,30.05,NW,316,1.1,1.1,77,0.00,CLR,,0.00,WeatherDisplay:10.37,2013-01-23 08:10:00,
2013-01-23 00:15:00,46.2,39.7,30.05,SW,231,0.0,0.0,78,0.00,CLR,,0.00,WeatherDisplay:10.37,2013-01-23 08:15:00,
2013-01-23 00:20:00,46.1,39.6,30.05,SW,231,0.0,0.0,78,0.00,CLR,,0.00,WeatherDisplay:10.37,2013-01-23 08:20:00,
2013-01-23 00:25:00,45.7,39.2,30.05,ENE,78,2.3,2.3,78,0.00,CLR,,0.00,WeatherDisplay:10.37,2013-01-23 08:25:00,
2013-01-23 00:31:00,45.7,39.2,30.05,ENE,78,0.0,0.0,78,0.00,CLR,,0.00,WeatherDisplay:10.37,2013-01-23 08:31:00,
2013-01-23 00:36:00,45.6,39.5,30.05,ENE,78,2.3,2.3,79,0.00,CLR,,0.00,WeatherDisplay:10.37,2013-01-23 08:36:00,
2013-01-23 00:41:00,45.7,39.6,30.04,ENE,73,2.3,2.3,79,0.00,CLR,,0.00,WeatherDisplay:10.37,2013-01-23 08:41:00,
2013-01-23 00:46:00,45.7,39.6,30.04,NNE,25,2.3,2.3,79,0.00,CLR,,0.00,WeatherDisplay:10.37,2013-01-23 08:46:00,
2013-01-23 00:51:00,45.9,39.8,30.04,NNW,333,1.1,1.1,79,0.00,CLR,,0.00,WeatherDisplay:10.37,2013-01-23 08:51:00,
2013-01-23 00:56:00,46.0,39.9,30.04,NW,316,1.1,0.0,79,0.00,CLR,,0.00,WeatherDisplay:10.37,2013-01-23 08:56:00,
2013-01-23 01:01:00,46.0,39.5,30.04,WSW,255,0.0,0.0,78,0.00,CLR,,0.00,WeatherDisplay:10.37,2013-01-23 09:01:00,
2013-01-23 01:06:00,46.0,39.9,30.05,East,101,2.0,2.0,79,0.00,CLR,,0.00,WeatherDisplay:10.37,2013-01-23 09:06:00,
2013-01-23 01:12:00,45.4,39.6,30.04,ENE,65,3.5,3.5,80,0.00,CLR,,0.00,WeatherDisplay:10.37,2013-01-23 09:12:00,
2013-01-23 01:17:00,45.5,40.0,30.04,ENE,60,3.5,3.5,81,0.00,CLR,,0.00,WeatherDisplay:10.37,2013-01-23 09:17:00,
2013-01-23 01:22:00,45.6,39.8,30.04,NE,37,2.3,2.3,80,0.00,CLR,,0.00,WeatherDisplay:10.37,2013-01-23 09:22:00,
2013-01-23 01:27:00,46.0,39.9,30.04,NNE,30,1.1,1.1,79,0.00,CLR,,0.00,WeatherDisplay:10.37,2013-01-23 09:27:00,
2013-01-23 01:33:00,46.3,40.1,30.04,NW,323,1.1,1.1,79,0.00,CLR,,0.00,WeatherDisplay:10.37,2013-01-23 09:33:00,
2013-01-23 01:38:00,46.2,40.0,30.04,WSW,239,0.0,0.0,79,0.00,CLR,,0.00,WeatherDisplay:10.37,2013-01-23 09:38:00,
2013-01-23 01:43:00,46.3,40.1,30.04,WSW,244,2.3,2.3,79,0.00,CLR,,0.00,WeatherDisplay:10.37,2013-01-23 09:43:00,
2013-01-23 01:48:00,46.3,40.1,30.04,East,93,2.3,2.3,79,0.00,CLR,,0.00,WeatherDisplay:10.37,2013-01-23 09:48:00,
2013-01-23 01:53:00,46.2,40.0,30.04,ENE,77,2.3,2.3,79,0.00,CLR,,0.00,WeatherDisplay:10.37,2013-01-23 09:53:00,
2013-01-23 01:58:00,46.3,40.1,30.04,ENE,78,1.1,0.0,79,0.00,CLR,,0.00,WeatherDisplay:10.37,2013-01-23 09:58:00,
2013-01-23 02:03:00,46.3,39.8,30.04,ENE,78,0.0,0.0,78,0.00,CLR,,0.00,WeatherDisplay:10.37,2013-01-23 10:03:00,
2013-01-23 02:08:00,46.3,39.8,30.04,ENE,78,1.1,1.1,78,0.00,CLR,,0.00,WeatherDisplay:10.37,2013-01-23 10:08:00,
2013-01-23 02:14:00,46.5,40.0,30.03,ENE,75,2.3,2.3,78,0.00,CLR,,0.00,WeatherDisplay:10.37,2013-01-23 10:14:00,
2013-01-23 02:19:00,46.6,39.8,30.03,ENE,71,1.1,1.1,77,0.00,CLR,,0.00,WeatherDisplay:10.37,2013-01-23 10:19:00,
2013-01-23 02:24:00,46.9,40.1,30.03,ENE,71,1.1,0.0,77,0.00,CLR,,0.00,WeatherDisplay:10.37,2013-01-23 10:24:00,
2013-01-23 02:29:00,47.0,40.2,30.03,ENE,71,0.0,0.0,77,0.00,CLR,,0.00,WeatherDisplay:10.37,2013-01-23 10:29:00,
2013-01-23 02:35:00,46.8,40.0,30.03,ENE,71,0.0,0.0,77,0.00,CLR,,0.00,WeatherDisplay:10.37,2013-01-23 10:35:00,
2013-01-23 02:40:00,46.7,39.9,30.03,ENE,71,0.0,0.0,77,0.00,CLR,,0.00,WeatherDisplay:10.37,2013-01-23 10:40:00,
2013-01-23 02:45:00,46.8,40.0,30.03,NNW,345,2.3,2.3,77,0.00,CLR,,0.00,WeatherDisplay:10.37,2013-01-23 10:45:00,
2013-01-23 02:50:00,46.7,39.9,30.03,NNW,346,1.1,1.1,77,0.00,CLR,,0.00,WeatherDisplay:10.37,2013-01-23 10:50:00,
2013-01-23 02:55:00,46.5,40.0,30.03,NNW,345,0.0,0.2,78,0.00,CLR,,0.00,WeatherDisplay:10.37,2013-01-23 10:55:00,
2013-01-23 03:00:00,46.5,40.0,30.03,NNW,345,0.0,0.0,78,0.00,CLR,,0.00,WeatherDisplay:10.37,2013-01-23 11:00:00,
2013-01-23 03:05:00,46.4,40.2,30.02,North,360,2.3,2.3,79,0.00,CLR,,0.00,WeatherDisplay:10.37,2013-01-23 11:05:00,
2013-01-23 03:10:00,46.4,40.2,30.02,NW,311,3.5,3.5,79,0.00,CLR,,0.00,WeatherDisplay:10.37,2013-01-23 11:10:00,
2013-01-23 03:15:00,46.5,40.3,30.02,NW,311,0.0,0.0,79,0.00,CLR,,0.00,WeatherDisplay:10.37,2013-01-23 11:15:00,
2013-01-23 03:20:00,46.8,40.3,30.01,NW,310,1.1,0.0,78,0.00,CLR,,0.00,WeatherDisplay:10.37,2013-01-23 11:20:00,
2013-01-23 03:26:00,47.3,40.5,30.00,NW,316,1.1,1.1,77,0.00,CLR,,0.00,WeatherDisplay:10.37,2013-01-23 11:26:00,
2013-01-23 03:31:00,46.9,40.4,30.00,NE,48,1.1,1.1,78,0.00,CLR,,0.00,WeatherDisplay:10.37,2013-01-23 11:31:00,
2013-01-23 03:36:00,46.5,40.3,30.00,WNW,283,1.1,1.1,79,0.00,CLR,,0.00,WeatherDisplay:10.37,2013-01-23 11:36:00,
2013-01-23 03:41:00,46.5,40.3,30.00,SW,235,1.1,1.1,79,0.00,CLR,,0.00,WeatherDisplay:10.37,2013-01-23 11:41:00,
2013-01-23 03:47:00,46.8,40.0,30.01,NW,316,2.3,2.3,77,0.00,CLR,,0.00,WeatherDisplay:10.37,2013-01-23 11:47:00,
2013-01-23 03:52:00,46.9,40.4,30.01,ENE,64,6.9,6.9,78,0.00,CLR,,0.00,WeatherDisplay:10.37,2013-01-23 11:52:00,
2013-01-23 03:57:00,46.2,40.4,30.01,ENE,61,6.9,6.9,80,0.00,CLR,,0.00,WeatherDisplay:10.37,2013-01-23 11:57:00,
2013-01-23 04:02:00,46.3,40.5,30.01,ENE,65,5.8,5.8,80,0.00,CLR,,0.00,WeatherDisplay:10.37,2013-01-23 12:02:00,
2013-01-23 04:07:00,46.7,40.5,30.01,ENE,68,2.3,2.3,79,0.00,CLR,,0.00,WeatherDisplay:10.37,2013-01-23 12:07:00,
2013-01-23 04:12:00,46.9,40.7,30.00,NW,319,3.5,3.5,79,0.00,CLR,,0.00,WeatherDisplay:10.37,2013-01-23 12:12:00,
2013-01-23 04:17:00,47.0,40.5,30.00,WNW,287,1.1,1.1,78,0.00,CLR,,0.00,WeatherDisplay:10.37,2013-01-23 12:17:00,
2013-01-23 04:22:00,46.9,40.4,30.00,WSW,245,1.1,1.1,78,0.00,CLR,,0.00,WeatherDisplay:10.37,2013-01-23 12:22:00,
2013-01-23 04:27:00,46.8,40.3,29.99,SW,236,2.3,2.3,78,0.00,CLR,,0.00,WeatherDisplay:10.37,2013-01-23 12:27:00,
2013-01-23 04:32:00,46.9,40.4,29.99,WSW,248,2.3,2.3,78,0.00,CLR,,0.00,WeatherDisplay:10.37,2013-01-23 12:32:00,
2013-01-23 04:37:00,47.1,40.6,29.99,WSW,256,1.1,0.0,78,0.00,CLR,,0.00,WeatherDisplay:10.37,2013-01-23 12:37:00,
2013-01-23 04:43:00,47.2,40.4,29.99,SW,233,2.3,2.3,77,0.00,CLR,,0.00,WeatherDisplay:10.37,2013-01-23 12:43:00,
2013-01-23 04:48:00,47.4,40.6,29.99,ESE,115,1.1,1.1,77,0.00,CLR,,0.00,WeatherDisplay:10.37,2013-01-23 12:48:00,
2013-01-23 04:53:00,46.8,40.3,29.99,ENE,70,3.5,3.5,78,0.00,CLR,,0.00,WeatherDisplay:10.37,2013-01-23 12:53:00,
2013-01-23 04:58:00,46.4,40.6,29.99,ENE,58,4.0,4.0,80,0.00,CLR,,0.00,WeatherDisplay:10.37,2013-01-23 12:58:00,
2013-01-23 05:03:00,46.5,40.7,29.99,NNE,29,3.5,3.5,80,0.00,CLR,,0.00,WeatherDisplay:10.37,2013-01-23 13:03:00,
2013-01-23 05:08:00,46.5,40.7,29.99,NE,34,2.3,2.3,80,0.00,CLR,,0.00,WeatherDisplay:10.37,2013-01-23 13:08:00,
2013-01-23 05:13:00,46.6,40.8,29.99,NE,34,1.1,1.1,80,0.00,CLR,,0.00,WeatherDisplay:10.37,2013-01-23 13:13:00,
2013-01-23 05:19:00,46.7,40.9,29.99,NW,321,0.0,0.0,80,0.00,CLR,,0.00,WeatherDisplay:10.37,2013-01-23 13:19:00,
2013-01-23 05:24:00,46.7,40.9,29.98,NW,314,1.1,1.1,80,0.00,CLR,,0.00,WeatherDisplay:10.37,2013-01-23 13:24:00,
2013-01-23 05:30:00,47.2,41.0,29.98,NW,326,0.0,0.0,79,0.00,CLR,,0.00,WeatherDisplay:10.37,2013-01-23 13:30:00,
2013-01-23 05:35:00,47.2,40.7,29.97,NW,304,1.1,1.1,78,0.00,CLR,,0.00,WeatherDisplay:10.37,2013-01-23 13:35:00,
2013-01-23 05:40:00,47.0,40.5,29.97,East,84,1.1,1.1,78,0.00,CLR,,0.00,WeatherDisplay:10.37,2013-01-23 13:40:00,
2013-01-23 05:45:00,46.3,40.5,29.97,ENE,64,2.3,2.3,80,0.00,CLR,,0.00,WeatherDisplay:10.37,2013-01-23 13:45:00,
2013-01-23 05:50:00,46.0,40.5,29.97,ENE,65,3.5,3.5,81,0.00,CLR,,0.00,WeatherDisplay:10.37,2013-01-23 13:50:00,
2013-01-23 05:55:00,46.0,40.5,29.97,NE,47,2.3,2.3,81,0.00,CLR,,0.00,WeatherDisplay:10.37,2013-01-23 13:55:00,
2013-01-23 06:00:00,46.3,40.5,29.99,NE,50,1.1,1.1,80,0.00,CLR,,0.00,WeatherDisplay:10.37,2013-01-23 14:00:00,
2013-01-23 06:05:00,46.6,40.8,29.98,ENE,62,2.3,2.3,80,0.00,CLR,,0.00,WeatherDisplay:10.37,2013-01-23 14:05:00,
2013-01-23 06:10:00,46.8,41.0,29.99,ENE,63,2.3,2.3,80,0.00,CLR,,0.00,WeatherDisplay:10.37,2013-01-23 14:10:00,
2013-01-23 06:15:00,47.2,41.0,29.98,North,356,1.1,1.1,79,0.00,CLR,,0.00,WeatherDisplay:10.37,2013-01-23 14:15:00,
2013-01-23 06:20:00,47.3,41.1,29.99,North,356,1.1,1.1,79,0.00,CLR,,0.00,WeatherDisplay:10.37,2013-01-23 14:20:00,
2013-01-23 06:25:00,47.3,41.1,29.99,WSW,242,1.1,1.3,79,0.00,CLR,,0.00,WeatherDisplay:10.37,2013-01-23 14:25:00,
2013-01-23 06:31:00,47.4,41.2,29.99,WSW,241,0.0,0.0,79,0.00,CLR,,0.00,WeatherDisplay:10.37,2013-01-23 14:31:00,
2013-01-23 06:36:00,47.5,41.3,29.99,ENE,68,0.0,0.0,79,0.00,CLR,,0.00,WeatherDisplay:10.37,2013-01-23 14:36:00,
2013-01-23 06:41:00,47.4,41.2,29.99,NE,46,3.0,3.0,79,0.00,CLR,,0.00,WeatherDisplay:10.37,2013-01-23 14:41:00,
2013-01-23 06:46:00,47.2,41.3,29.98,NE,47,1.1,1.1,80,0.00,CLR,,0.00,WeatherDisplay:10.37,2013-01-23 14:46:00,
2013-01-23 06:51:00,47.2,41.3,29.98,NE,47,0.0,0.0,80,0.00,CLR,,0.00,WeatherDisplay:10.37,2013-01-23 14:51:00,
2013-01-23 06:56:00,47.2,41.3,29.99,SW,215,2.0,2.0,80,0.00,CLR,,0.00,WeatherDisplay:10.37,2013-01-23 14:56:00,
2013-01-23 07:01:00,47.3,41.4,29.99,SSW,207,1.1,1.1,80,0.00,CLR,,0.00,WeatherDisplay:10.37,2013-01-23 15:01:00,
2013-01-23 07:06:00,47.5,41.0,29.99,South,169,1.1,1.1,78,0.00,CLR,,0.00,WeatherDisplay:10.37,2013-01-23 15:06:00,
2013-01-23 07:11:00,47.7,41.2,29.99,SSE,156,2.3,2.3,78,0.00,CLR,,0.00,WeatherDisplay:10.37,2013-01-23 15:11:00,
2013-01-23 07:16:00,47.7,41.2,29.99,SW,221,2.3,2.3,78,0.00,CLR,,0.00,WeatherDisplay:10.37,2013-01-23 15:16:00,
2013-01-23 07:22:00,47.7,41.5,29.99,SSW,211,2.3,2.3,79,0.00,CLR,,0.00,WeatherDisplay:10.37,2013-01-23 15:22:00,
2013-01-23 07:27:00,47.6,41.4,29.99,SSW,212,1.1,1.1,79,0.00,CLR,,0.00,WeatherDisplay:10.37,2013-01-23 15:27:00,
2013-01-23 07:32:00,47.7,41.2,30.00,SW,218,1.1,1.1,78,0.00,CLR,,0.00,WeatherDisplay:10.37,2013-01-23 15:32:00,
2013-01-23 07:37:00,47.7,41.5,30.00,SSW,197,1.1,1.1,79,0.00,CLR,,0.00,WeatherDisplay:10.37,2013-01-23 15:37:00,
2013-01-23 07:42:00,47.8,41.3,30.00,South,176,1.1,1.1,78,0.00,CLR,,0.00,WeatherDisplay:10.37,2013-01-23 15:42:00,
2013-01-23 07:47:00,47.9,41.4,30.00,South,176,0.0,0.0,78,0.00,CLR,,0.00,WeatherDisplay:10.37,2013-01-23 15:47:00,
2013-01-23 07:52:00,47.5,41.6,29.99,ENE,63,2.3,2.3,80,0.00,CLR,,0.00,WeatherDisplay:10.37,2013-01-23 15:52:00,
2013-01-23 07:57:00,47.2,41.7,30.00,NE,56,1.1,1.1,81,0.00,CLR,,0.00,WeatherDisplay:10.37,2013-01-23 15:57:00,
2013-01-23 08:02:00,47.3,41.4,30.00,SW,236,1.1,1.1,80,0.00,CLR,,0.00,WeatherDisplay:10.37,2013-01-23 16:02:00,
2013-01-23 08:07:00,47.5,41.6,30.01,SW,236,0.0,0.0,80,0.00,CLR,,0.00,WeatherDisplay:10.37,2013-01-23 16:07:00,
2013-01-23 08:12:00,47.7,41.5,30.01,SW,236,0.0,0.0,79,0.00,CLR,,0.00,WeatherDisplay:10.37,2013-01-23 16:12:00,
2013-01-23 08:17:00,47.7,41.5,30.01,SW,236,0.0,0.0,79,0.00,CLR,,0.00,WeatherDisplay:10.37,2013-01-23 16:17:00,
2013-01-23 08:22:00,47.7,41.5,30.00,SW,236,0.0,0.0,79,0.00,CLR,,0.00,WeatherDisplay:10.37,2013-01-23 16:22:00,
2013-01-23 08:28:00,47.7,41.8,30.00,SW,236,0.0,0.0,80,0.00,CLR,,0.00,WeatherDisplay:10.37,2013-01-23 16:28:00,
2013-01-23 08:33:00,47.8,41.9,30.02,SSW,205,1.1,1.1,80,0.00,CLR,,0.00,WeatherDisplay:10.37,2013-01-23 16:33:00,
2013-01-23 08:38:00,48.0,42.1,30.02,SSW,203,0.0,0.0,80,0.00,CLR,,0.00,WeatherDisplay:10.37,2013-01-23 16:38:00,
2013-01-23 08:43:00,48.2,42.0,30.02,SSW,201,0.0,0.0,79,0.00,CLR,,0.00,WeatherDisplay:10.37,2013-01-23 16:43:00,
2013-01-23 08:48:00,48.3,42.1,30.02,SE,131,1.0,1.0,79,0.00,CLR,,0.00,WeatherDisplay:10.37,2013-01-23 16:48:00,
2013-01-23 08:53:00,48.1,42.2,30.02,NE,54,1.1,1.1,80,0.00,CLR,,0.00,WeatherDisplay:10.37,2013-01-23 16:53:00,
2013-01-23 08:58:00,48.0,42.1,30.02,NE,54,0.0,0.0,80,0.00,CLR,,0.00,WeatherDisplay:10.37,2013-01-23 16:58:00,
2013-01-23 09:03:00,48.1,42.2,30.03,West,269,2.3,2.3,80,0.00,CLR,,0.00,WeatherDisplay:10.37,2013-01-23 17:03:00,
2013-01-23 09:08:00,48.3,42.4,30.02,SW,233,1.1,1.1,80,0.00,CLR,,0.00,WeatherDisplay:10.37,2013-01-23 17:08:00,
2013-01-23 09:13:00,48.4,42.2,30.03,SW,221,1.1,1.1,79,0.00,CLR,,0.00,WeatherDisplay:10.37,2013-01-23 17:13:00,
2013-01-23 09:18:00,48.5,42.3,30.03,SW,220,0.0,0.0,79,0.00,CLR,,0.00,WeatherDisplay:10.37,2013-01-23 17:18:00,
2013-01-23 09:23:00,48.5,42.3,30.04,South,188,1.1,1.1,79,0.00,CLR,,0.00,WeatherDisplay:10.37,2013-01-23 17:23:00,
2013-01-23 09:28:00,48.5,42.0,30.04,South,169,1.1,1.1,78,0.00,CLR,,0.00,WeatherDisplay:10.37,2013-01-23 17:28:00,
2013-01-23 09:33:00,48.6,42.0,30.03,South,169,0.0,0.0,78,0.00,CLR,,0.00,WeatherDisplay:10.37,2013-01-23 17:33:00,
2013-01-23 09:38:00,48.7,42.1,30.03,South,174,0.0,0.0,78,0.00,CLR,,0.00,WeatherDisplay:10.37,2013-01-23 17:38:00,
2013-01-23 09:43:00,48.7,41.8,30.03,SW,232,1.1,1.1,77,0.00,CLR,,0.00,WeatherDisplay:10.37,2013-01-23 17:43:00,
2013-01-23 09:48:00,48.8,42.2,30.04,SW,229,2.3,2.3,78,0.00,CLR,,0.00,WeatherDisplay:10.37,2013-01-23 17:48:00,
2013-01-23 09:54:00,49.0,42.4,30.04,West,259,1.1,0.0,78,0.00,CLR,,0.00,WeatherDisplay:10.37,2013-01-23 17:54:00,
2013-01-23 09:59:00,49.1,42.5,30.04,West,259,0.0,0.0,78,0.00,CLR,,0.00,WeatherDisplay:10.37,2013-01-23 17:59:00,
2013-01-23 10:04:00,49.1,42.5,30.04,ENE,60,4.0,4.0,78,0.00,CLR,,0.00,WeatherDisplay:10.37,2013-01-23 18:04:00,
2013-01-23 10:09:00,48.9,43.0,30.05,ENE,70,4.6,4.6,80,0.00,CLR,,0.00,WeatherDisplay:10.37,2013-01-23 18:09:00,
2013-01-23 10:14:00,48.9,43.0,30.05,NNW,343,1.1,1.1,80,0.00,CLR,,0.00,WeatherDisplay:10.37,2013-01-23 18:14:00,
2013-01-23 10:19:00,49.1,42.9,30.05,NW,322,1.1,1.1,79,0.00,CLR,,0.00,WeatherDisplay:10.37,2013-01-23 18:19:00,
2013-01-23 10:24:00,49.4,42.8,30.05,NW,322,0.0,0.0,78,0.00,CLR,,0.00,WeatherDisplay:10.37,2013-01-23 18:24:00,
2013-01-23 10:30:00,49.8,43.2,30.05,NW,316,2.0,2.0,78,0.00,CLR,,0.00,WeatherDisplay:10.37,2013-01-23 18:30:00,
2013-01-23 10:35:00,49.9,43.0,30.05,NW,312,2.3,2.3,77,0.00,CLR,,0.00,WeatherDisplay:10.37,2013-01-23 18:35:00,
2013-01-23 10:41:00,50.3,43.4,30.05,West,261,1.1,1.1,77,0.00,CLR,,0.00,WeatherDisplay:10.37,2013-01-23 18:41:00,
2013-01-23 10:46:00,50.8,43.2,30.05,WSW,252,2.3,2.3,75,0.00,CLR,,0.00,WeatherDisplay:10.37,2013-01-23 18:46:00,
2013-01-23 10:51:00,51.1,43.4,30.05,WSW,253,2.3,2.3,75,0.00,CLR,,0.00,WeatherDisplay:10.37,2013-01-23 18:51:00,
2013-01-23 10:56:00,51.3,43.3,30.05,WSW,244,1.1,1.1,74,0.00,CLR,,0.00,WeatherDisplay:10.37,2013-01-23 18:56:00,
2013-01-23 11:01:00,51.5,43.5,30.06,SW,236,1.1,1.1,74,0.00,CLR,,0.00,WeatherDisplay:10.37,2013-01-23 19:01:00,
2013-01-23 11:06:00,51.7,43.7,30.05,SW,220,2.3,2.3,74,0.00,CLR,,0.00,WeatherDisplay:10.37,2013-01-23 19:06:00,
2013-01-23 11:11:00,51.8,44.1,30.06,SW,220,0.0,0.0,75,0.00,CLR,,0.00,WeatherDisplay:10.37,2013-01-23 19:11:00,
2013-01-23 11:16:00,52.0,45.0,30.06,SW,221,1.1,0.0,77,0.00,CLR,,0.00,WeatherDisplay:10.37,2013-01-23 19:16:00,
2013-01-23 11:21:00,52.2,45.2,30.06,SW,220,0.0,0.0,77,0.00,CLR,,0.00,WeatherDisplay:10.37,2013-01-23 19:21:00,
2013-01-23 11:26:00,51.9,44.9,30.05,NW,321,2.3,2.3,77,0.00,CLR,,0.00,WeatherDisplay:10.37,2013-01-23 19:26:00,
2013-01-23 11:31:00,51.4,45.1,30.04,NNE,19,3.5,3.5,79,0.00,CLR,,0.00,WeatherDisplay:10.37,2013-01-23 19:31:00,
2013-01-23 11:37:00,50.9,45.6,30.06,East,91,3.5,3.5,82,0.01,RA,,0.01,WeatherDisplay:10.37,2013-01-23 19:37:00,
2013-01-23 11:42:00,50.5,45.2,30.05,NNW,336,1.1,1.1,82,0.01,RA,,0.01,WeatherDisplay:10.37,2013-01-23 19:42:00,
2013-01-23 11:47:00,50.6,46.3,30.06,SW,217,2.3,2.3,85,0.01,CLR,,0.01,WeatherDisplay:10.37,2013-01-23 19:47:00,
2013-01-23 11:52:00,50.5,46.5,30.06,SSW,211,1.1,1.1,86,0.01,CLR,,0.01,WeatherDisplay:10.37,2013-01-23 19:52:00,
2013-01-23 11:57:00,50.6,46.9,30.06,SW,233,1.1,1.1,87,0.01,CLR,,0.01,WeatherDisplay:10.37,2013-01-23 19:57:00,
2013-01-23 12:02:00,50.7,47.0,30.05,SW,236,1.1,1.1,87,0.01,CLR,,0.01,WeatherDisplay:10.37,2013-01-23 20:02:00,
2013-01-23 12:07:00,50.7,47.0,30.05,East,92,1.1,1.1,87,0.01,CLR,,0.01,WeatherDisplay:10.37,2013-01-23 20:07:00,
2013-01-23 12:12:00,50.7,46.7,30.05,East,91,1.1,1.1,86,0.01,CLR,,0.01,WeatherDisplay:10.37,2013-01-23 20:12:00,
2013-01-23 12:18:00,50.6,46.9,30.05,ENE,57,3.5,3.5,87,0.02,RA,,0.02,WeatherDisplay:10.37,2013-01-23 20:18:00,
2013-01-23 12:23:00,50.4,46.4,30.05,ENE,67,3.5,3.5,86,0.02,RA,,0.02,WeatherDisplay:10.37,2013-01-23 20:23:00,
2013-01-23 12:28:00,50.4,46.7,30.04,NE,39,3.5,3.5,87,0.02,CLR,,0.02,WeatherDisplay:10.37,2013-01-23 20:28:00,
2013-01-23 12:34:00,50.3,46.6,30.04,NNE,12,2.3,2.3,87,0.01,CLR,,0.02,WeatherDisplay:10.37,2013-01-23 20:34:00,
2013-01-23 12:39:00,50.4,47.0,30.04,NNW,336,1.1,1.1,88,0.01,CLR,,0.02,WeatherDisplay:10.37,2013-01-23 20:39:00,
2013-01-23 12:44:00,50.4,47.0,30.04,NNW,332,1.1,1.1,88,0.01,CLR,,0.02,WeatherDisplay:10.37,2013-01-23 20:44:00,
2013-01-23 12:49:00,50.5,47.1,30.04,NW,326,2.3,2.3,88,0.01,CLR,,0.02,WeatherDisplay:10.37,2013-01-23 20:49:00,
2013-01-23 12:54:00,50.5,46.8,30.04,NNW,338,2.3,2.3,87,0.01,CLR,,0.02,WeatherDisplay:10.37,2013-01-23 20:54:00,
2013-01-23 12:59:00,50.7,47.0,30.04,North,353,2.3,2.3,87,0.01,CLR,,0.02,WeatherDisplay:10.37,2013-01-23 20:59:00,
2013-01-23 13:04:00,50.7,47.0,30.03,NNE,18,3.0,3.0,87,0.01,CLR,,0.02,WeatherDisplay:10.37,2013-01-23 21:04:00,
2013-01-23 13:09:00,50.8,47.1,30.03,North,353,3.5,3.5,87,0.01,CLR,,0.02,WeatherDisplay:10.37,2013-01-23 21:09:00,
2013-01-23 13:14:00,50.7,46.7,30.03,North,360,4.6,4.6,86,0.01,CLR,,0.02,WeatherDisplay:10.37,2013-01-23 21:14:00,
2013-01-23 13:19:00,50.7,47.0,30.03,North,349,3.5,3.5,87,0.00,CLR,,0.02,WeatherDisplay:10.37,2013-01-23 21:19:00,
2013-01-23 13:24:00,50.7,47.0,30.03,North,353,2.3,2.3,87,0.00,CLR,,0.02,WeatherDisplay:10.37,2013-01-23 21:24:00,
2013-01-23 13:29:00,50.6,46.9,30.03,NNW,336,0.0,0.0,87,0.01,RA,,0.03,WeatherDisplay:10.37,2013-01-23 21:29:00,
2013-01-23 13:34:00,50.6,47.2,30.03,NNW,336,1.1,1.1,88,0.01,RA,,0.03,WeatherDisplay:10.37,2013-01-23 21:34:00,
2013-01-23 13:39:00,50.6,47.5,30.03,ENE,68,2.3,2.3,89,0.02,RA,,0.04,WeatherDisplay:10.37,2013-01-23 21:39:00,
2013-01-23 13:45:00,50.5,47.4,30.03,NE,36,3.5,3.5,89,0.02,RA,,0.04,WeatherDisplay:10.37,2013-01-23 21:45:00,
2013-01-23 13:50:00,50.4,47.3,30.03,ENE,58,2.3,2.3,89,0.02,CLR,,0.04,WeatherDisplay:10.37,2013-01-23 21:50:00,
2013-01-23 13:55:00,50.4,47.3,30.04,NE,47,0.0,0.0,89,0.03,RA,,0.05,WeatherDisplay:10.37,2013-01-23 21:55:00,
2013-01-23 14:00:00,50.3,47.2,30.04,NE,47,1.1,1.1,89,0.03,RA,,0.05,WeatherDisplay:10.37,2013-01-23 22:00:00,
2013-01-23 14:05:00,50.3,47.5,30.03,NE,41,2.3,2.3,90,0.03,,,0.05,WeatherDisplay:10.37,2013-01-23 22:05:00,
2013-01-23 14:10:00,50.3,47.5,30.03,ENE,58,3.5,3.5,90,0.03,CLR,,0.05,WeatherDisplay:10.37,2013-01-23 22:10:00,
2013-01-23 14:16:00,50.3,47.8,30.03,NE,56,2.3,2.3,91,0.03,CLR,,0.05,WeatherDisplay:10.37,2013-01-23 22:16:00,
2013-01-23 14:21:00,50.2,47.7,30.03,ENE,71,2.3,2.3,91,0.03,CLR,,0.05,WeatherDisplay:10.37,2013-01-23 22:21:00,
2013-01-23 14:26:00,50.2,47.7,30.03,ENE,71,0.0,0.0,91,0.03,CLR,,0.05,WeatherDisplay:10.37,2013-01-23 22:26:00,
2013-01-23 14:31:00,50.3,47.8,30.03,ENE,71,0.0,0.0,91,0.03,RA,,0.06,WeatherDisplay:10.37,2013-01-23 22:31:00,
2013-01-23 14:37:00,50.3,47.8,30.03,ENE,71,0.0,0.0,91,0.04,RA,,0.07,WeatherDisplay:10.37,2013-01-23 22:37:00,
2013-01-23 14:42:00,50.3,47.8,30.03,NNW,338,1.1,1.1,91,0.03,RA,,0.07,WeatherDisplay:10.37,2013-01-23 22:42:00,
2013-01-23 14:47:00,50.4,47.9,30.04,NNW,335,1.1,1.1,91,0.04,RA,,0.08,WeatherDisplay:10.37,2013-01-23 22:47:00,
2013-01-23 14:52:00,50.6,48.4,30.05,WNW,284,2.3,2.3,92,0.05,RA,,0.09,WeatherDisplay:10.37,2013-01-23 22:52:00,
2013-01-23 14:57:00,50.6,48.4,30.05,NNW,345,3.5,3.5,92,0.06,RA,,0.11,WeatherDisplay:10.37,2013-01-23 22:57:00,
2013-01-23 15:02:00,50.5,48.0,30.05,North,8,2.3,2.3,91,0.07,RA,,0.12,WeatherDisplay:10.37,2013-01-23 23:02:00,
2013-01-23 15:07:00,50.7,48.2,30.06,ENE,60,3.0,3.0,91,0.08,RA,,0.13,WeatherDisplay:10.37,2013-01-23 23:07:00,
2013-01-23 15:12:00,50.7,48.2,30.06,ENE,61,5.0,5.0,91,0.08,RA,,0.13,WeatherDisplay:10.37,2013-01-23 23:12:00,
2013-01-23 15:17:00,50.5,48.3,30.06,ENE,65,4.0,4.0,92,0.10,RA,,0.15,WeatherDisplay:10.37,2013-01-23 23:17:00,
2013-01-23 15:22:00,50.4,48.2,30.07,NE,49,2.3,2.3,92,0.12,RA,,0.17,WeatherDisplay:10.37,2013-01-23 23:22:00,
2013-01-23 15:27:00,50.4,48.2,30.08,NE,49,1.1,0.0,92,0.13,RA,,0.19,WeatherDisplay:10.37,2013-01-23 23:27:00,
2013-01-23 15:32:00,50.5,48.3,30.08,NE,49,0.0,0.0,92,0.13,RA,,0.20,WeatherDisplay:10.37,2013-01-23 23:32:00,
2013-01-23 15:37:00,50.4,48.2,30.08,ENE,72,2.3,2.3,92,0.14,RA,,0.21,WeatherDisplay:10.37,2013-01-23 23:37:00,
2013-01-23 15:42:00,50.3,48.1,30.08,East,86,3.5,3.5,92,0.15,RA,,0.22,WeatherDisplay:10.37,2013-01-23 23:42:00,
2013-01-23 15:47:00,50.3,48.4,30.08,ENE,65,3.5,3.5,93,0.16,RA,,0.24,WeatherDisplay:10.37,2013-01-23 23:47:00,
2013-01-23 15:52:00,50.2,48.3,30.08,East,85,2.3,2.3,93,0.19,RA,,0.28,WeatherDisplay:10.37,2013-01-23 23:52:00,
2013-01-23 15:57:00,50.1,48.2,30.08,South,176,1.0,1.0,93,0.18,RA,,0.29,WeatherDisplay:10.37,2013-01-23 23:57:00,
2013-01-23 16:03:00,50.2,48.3,30.08,SSE,166,1.1,1.1,93,0.18,RA,,0.30,WeatherDisplay:10.37,2013-01-24 00:03:00,
2013-01-23 16:08:00,50.2,48.3,30.08,South,172,0.0,0.0,93,0.18,RA,,0.31,WeatherDisplay:10.37,2013-01-24 00:08:00,
2013-01-23 16:13:00,50.2,48.3,30.08,South,172,0.0,0.0,93,0.18,RA,,0.31,WeatherDisplay:10.37,2013-01-24 00:13:00,
2013-01-23 16:18:00,50.3,48.4,30.08,South,172,0.0,0.0,93,0.17,RA,,0.32,WeatherDisplay:10.37,2013-01-24 00:18:00,
2013-01-23 16:23:00,50.2,48.3,30.07,West,260,1.1,1.1,93,0.16,RA,,0.33,WeatherDisplay:10.37,2013-01-24 00:23:00,
2013-01-23 16:28:00,50.2,48.3,30.07,WNW,283,1.1,1.1,93,0.14,RA,,0.33,WeatherDisplay:10.37,2013-01-24 00:28:00,
2013-01-23 16:33:00,50.3,48.4,30.07,WNW,283,0.0,0.0,93,0.14,RA,,0.34,WeatherDisplay:10.37,2013-01-24 00:33:00,
2013-01-23 16:38:00,50.3,48.4,30.08,West,281,0.0,0.0,93,0.13,RA,,0.34,WeatherDisplay:10.37,2013-01-24 00:38:00,
2013-01-23 16:43:00,50.3,48.4,30.08,West,279,0.0,0.0,93,0.12,CLR,,0.34,WeatherDisplay:10.37,2013-01-24 00:43:00,
2013-01-23 16:49:00,50.3,48.4,30.08,West,270,0.0,0.0,93,0.09,CLR,,0.34,WeatherDisplay:10.37,2013-01-24 00:49:00,
2013-01-23 16:54:00,50.3,48.4,30.09,South,191,0.0,0.0,93,0.07,RA,,0.35,WeatherDisplay:10.37,2013-01-24 00:54:00,
2013-01-23 16:59:00,50.3,48.4,30.08,South,191,0.0,0.0,93,0.07,RA,,0.36,WeatherDisplay:10.37,2013-01-24 00:59:00,
2013-01-23 17:04:00,50.2,48.3,30.07,NNW,342,3.5,3.5,93,0.07,RA,,0.37,WeatherDisplay:10.37,2013-01-24 01:04:00,
2013-01-23 17:09:00,50.0,48.1,30.06,North,11,5.8,5.8,93,0.06,RA,,0.37,WeatherDisplay:10.37,2013-01-24 01:09:00,
2013-01-23 17:14:00,49.7,47.8,30.06,NW,323,3.5,3.5,93,0.06,RA,,0.38,WeatherDisplay:10.37,2013-01-24 01:14:00,
2013-01-23 17:19:00,49.7,47.8,30.07,WNW,288,2.3,2.3,93,0.06,RA,,0.38,WeatherDisplay:10.37,2013-01-24 01:19:00,
2013-01-23 17:24:00,49.7,48.0,30.08,West,263,3.5,3.5,94,0.05,,,0.38,WeatherDisplay:10.37,2013-01-24 01:24:00,
2013-01-23 17:30:00,49.8,48.1,30.08,NW,319,2.3,2.3,94,0.04,CLR,,0.38,WeatherDisplay:10.37,2013-01-24 01:30:00,
2013-01-23 17:35:00,49.9,48.2,30.08,NW,319,0.0,0.0,94,0.04,CLR,,0.38,WeatherDisplay:10.37,2013-01-24 01:35:00,
2013-01-23 17:40:00,49.8,48.1,30.08,NE,47,1.1,1.1,94,0.04,CLR,,0.38,WeatherDisplay:10.37,2013-01-24 01:40:00,
2013-01-23 17:45:00,49.7,48.0,30.09,ENE,77,3.5,3.5,94,0.04,CLR,,0.38,WeatherDisplay:10.37,2013-01-24 01:45:00,
2013-01-23 17:50:00,49.5,47.8,30.08,ESE,110,0.0,0.0,94,0.03,CLR,,0.38,WeatherDisplay:10.37,2013-01-24 01:50:00,
2013-01-23 17:55:00,49.4,47.7,30.08,NE,36,3.5,3.5,94,0.02,CLR,,0.38,WeatherDisplay:10.37,2013-01-24 01:55:00,
2013-01-23 18:00:00,49.4,47.7,30.09,NNE,13,2.3,2.3,94,0.02,CLR,,0.38,WeatherDisplay:10.37,2013-01-24 02:00:00,
2013-01-23 18:05:00,49.5,47.8,30.09,NNE,13,1.1,1.1,94,0.01,CLR,,0.38,WeatherDisplay:10.37,2013-01-24 02:05:00,
2013-01-23 18:11:00,49.5,47.8,30.09,NW,319,1.1,0.0,94,0.01,CLR,,0.38,WeatherDisplay:10.37,2013-01-24 02:11:00,
2013-01-23 18:16:00,49.5,47.8,30.09,NNE,22,2.3,2.3,94,0.00,CLR,,0.38,WeatherDisplay:10.37,2013-01-24 02:16:00,
2013-01-23 18:21:00,49.2,47.5,30.09,NE,36,1.1,1.1,94,0.00,CLR,,0.38,WeatherDisplay:10.37,2013-01-24 02:21:00,
2013-01-23 18:26:00,49.2,47.5,30.09,NNW,330,2.3,2.3,94,0.00,CLR,,0.38,WeatherDisplay:10.37,2013-01-24 02:26:00,
2013-01-23 18:31:00,49.2,47.5,30.09,NNW,338,3.5,3.5,94,0.00,CLR,,0.38,WeatherDisplay:10.37,2013-01-24 02:31:00,
2013-01-23 18:36:00,49.2,47.5,30.08,North,350,3.5,3.5,94,0.00,CLR,,0.38,WeatherDisplay:10.37,2013-01-24 02:36:00,
2013-01-23 18:41:00,49.1,47.4,30.08,NNW,336,3.5,3.5,94,0.01,RA,,0.39,WeatherDisplay:10.37,2013-01-24 02:41:00,
2013-01-23 18:46:00,49.0,47.3,30.08,NE,36,4.6,4.6,94,0.01,RA,,0.39,WeatherDisplay:10.37,2013-01-24 02:46:00,
2013-01-23 18:51:00,49.0,47.3,30.08,NNW,327,6.9,6.9,94,0.01,,,0.39,WeatherDisplay:10.37,2013-01-24 02:51:00,
2013-01-23 18:56:00,49.1,47.4,30.07,NNW,332,5.8,5.8,94,0.01,CLR,,0.39,WeatherDisplay:10.37,2013-01-24 02:56:00,
2013-01-23 19:02:00,49.1,47.4,30.08,WNW,298,1.1,1.1,94,0.01,CLR,,0.39,WeatherDisplay:10.37,2013-01-24 03:02:00,
2013-01-23 19:07:00,49.2,47.5,30.08,WNW,299,1.1,1.1,94,0.01,CLR,,0.39,WeatherDisplay:10.37,2013-01-24 03:07:00,
2013-01-23 19:12:00,49.3,47.6,30.08,WNW,297,1.1,0.0,94,0.01,CLR,,0.39,WeatherDisplay:10.37,2013-01-24 03:12:00,
2013-01-23 19:17:00,49.3,47.6,30.09,WNW,297,0.0,0.0,94,0.01,CLR,,0.39,WeatherDisplay:10.37,2013-01-24 03:17:00,
2013-01-23 19:22:00,49.2,47.5,30.09,SW,236,1.1,0.0,94,0.01,CLR,,0.39,WeatherDisplay:10.37,2013-01-24 03:22:00,
2013-01-23 19:27:00,49.2,47.5,30.09,NW,311,2.0,2.0,94,0.01,CLR,,0.39,WeatherDisplay:10.37,2013-01-24 03:27:00,
2013-01-23 19:33:00,49.3,47.6,30.09,NNW,330,3.5,3.5,94,0.01,CLR,,0.39,WeatherDisplay:10.37,2013-01-24 03:33:00,
2013-01-23 19:38:00,49.4,47.7,30.09,NE,51,1.0,1.0,94,0.01,CLR,,0.39,WeatherDisplay:10.37,2013-01-24 03:38:00,
2013-01-23 19:43:00,49.1,47.4,30.09,North,4,2.3,2.3,94,0.00,CLR,,0.39,WeatherDisplay:10.37,2013-01-24 03:43:00,
2013-01-23 19:48:00,49.0,47.3,30.09,NNW,334,2.3,2.3,94,0.01,RA,,0.40,WeatherDisplay:10.37,2013-01-24 03:48:00,
2013-01-23 19:53:00,48.9,47.2,30.08,NNW,338,1.1,1.1,94,0.01,RA,,0.40,WeatherDisplay:10.37,2013-01-24 03:53:00,
2013-01-23 19:58:00,48.9,47.2,30.08,NNW,339,1.1,1.1,94,0.01,CLR,,0.40,WeatherDisplay:10.37,2013-01-24 03:58:00,
2013-01-23 20:03:00,49.1,47.4,30.08,NNW,345,1.1,1.1,94,0.01,CLR,,0.40,WeatherDisplay:10.37,2013-01-24 04:03:00,
2013-01-23 20:08:00,49.4,47.7,30.08,WNW,302,3.5,3.5,94,0.01,CLR,,0.40,WeatherDisplay:10.37,2013-01-24 04:08:00,
2013-01-23 20:13:00,49.8,48.1,30.08,West,266,4.6,4.6,94,0.01,CLR,,0.40,WeatherDisplay:10.37,2013-01-24 04:13:00,
2013-01-23 20:18:00,49.8,48.1,30.08,WSW,255,2.3,2.3,94,0.01,CLR,,0.40,WeatherDisplay:10.37,2013-01-24 04:18:00,
2013-01-23 20:23:00,49.7,48.0,30.08,WSW,257,1.1,1.1,94,0.01,CLR,,0.40,WeatherDisplay:10.37,2013-01-24 04:23:00,
2013-01-23 20:28:00,49.8,48.1,30.09,WNW,291,2.3,2.3,94,0.01,CLR,,0.40,WeatherDisplay:10.37,2013-01-24 04:28:00,
2013-01-23 20:33:00,49.9,48.2,30.09,WNW,293,2.3,0.0,94,0.01,CLR,,0.40,WeatherDisplay:10.37,2013-01-24 04:33:00,
2013-01-23 20:38:00,50.0,48.3,30.09,WSW,239,1.1,1.1,94,0.01,CLR,,0.40,WeatherDisplay:10.37,2013-01-24 04:38:00,
2013-01-23 20:43:00,50.0,48.3,30.09,West,263,0.0,0.0,94,0.01,CLR,,0.40,WeatherDisplay:10.37,2013-01-24 04:43:00,
2013-01-23 20:48:00,50.0,48.3,30.09,NNE,30,3.5,3.5,94,0.00,CLR,,0.40,WeatherDisplay:10.37,2013-01-24 04:48:00,
2013-01-23 20:53:00,50.0,48.3,30.10,East,82,2.3,2.3,94,0.00,CLR,,0.40,WeatherDisplay:10.37,2013-01-24 04:53:00,
2013-01-23 20:58:00,49.9,48.0,30.10,ENE,71,2.3,2.3,93,0.00,CLR,,0.40,WeatherDisplay:10.37,2013-01-24 04:58:00,
2013-01-23 21:00:00,49.9,48.0,30.10,ENE,71,2.3,2.3,93,0.00,CLR,,0.40,WeatherDisplay:10.37,2013-01-24 05:00:00,
2013-01-23 21:01:00,49.9,48.0,30.10,ENE,71,1.1,1.1,93,0.00,CLR,,0.40,WeatherDisplay:10.37,2013-01-24 05:01:00,
2013-01-23 21:03:00,49.8,47.9,30.10,NE,34,1.1,1.1,93,0.00,CLR,,0.40,WeatherDisplay:10.37,2013-01-24 05:03:00,
2013-01-23 21:05:00,49.7,47.8,30.10,NE,34,1.1,1.1,93,0.00,CLR,,0.40,WeatherDisplay:10.37,2013-01-24 05:05:00,
2013-01-23 21:10:00,49.5,47.6,30.09,NNE,25,1.1,0.0,93,0.00,CLR,,0.40,WeatherDisplay:10.37,2013-01-24 05:10:00,
2013-01-23 21:15:00,49.4,47.5,30.09,NNE,25,0.0,0.0,93,0.00,CLR,,0.40,WeatherDisplay:10.37,2013-01-24 05:15:00,
2013-01-23 21:20:00,49.4,47.7,30.10,NNE,25,0.0,0.0,94,0.00,CLR,,0.40,WeatherDisplay:10.37,2013-01-24 05:20:00,
2013-01-23 21:25:00,49.5,47.8,30.11,NNE,25,0.0,0.0,94,0.00,CLR,,0.40,WeatherDisplay:10.37,2013-01-24 05:25:00,
2013-01-23 21:30:00,49.5,47.8,30.10,NNE,25,0.0,0.0,94,0.00,CLR,,0.40,WeatherDisplay:10.37,2013-01-24 05:30:00,
2013-01-23 21:36:00,49.5,47.8,30.11,SSE,163,3.5,3.5,94,0.01,RA,,0.41,WeatherDisplay:10.37,2013-01-24 05:36:00,
2013-01-23 21:41:00,49.5,47.8,30.11,SSE,162,0.0,0.0,94,0.01,RA,,0.41,WeatherDisplay:10.37,2013-01-24 05:41:00,
2013-01-23 21:46:00,49.5,47.8,30.11,SW,229,0.0,0.0,94,0.01,CLR,,0.41,WeatherDisplay:10.37,2013-01-24 05:46:00,
2013-01-23 21:51:00,49.6,47.9,30.11,SW,229,0.0,0.0,94,0.02,RA,,0.42,WeatherDisplay:10.37,2013-01-24 05:51:00,
2013-01-23 21:56:00,49.5,47.8,30.11,SW,229,0.0,0.0,94,0.02,RA,,0.42,WeatherDisplay:10.37,2013-01-24 05:56:00,
2013-01-23 22:01:00,49.3,47.6,30.10,SW,229,0.0,0.0,94,0.02,CLR,,0.43,WeatherDisplay:10.37,2013-01-24 06:01:00,
2013-01-23 22:06:00,49.4,47.7,30.10,SW,229,0.0,0.0,94,0.03,RA,,0.43,WeatherDisplay:10.37,2013-01-24 06:06:00,
2013-01-23 22:12:00,49.6,47.9,30.10,West,263,1.0,0.0,94,0.03,,,0.43,WeatherDisplay:10.37,2013-01-24 06:12:00,
2013-01-23 22:17:00,49.7,48.0,30.10,NW,305,2.3,2.3,94,0.03,CLR,,0.43,WeatherDisplay:10.37,2013-01-24 06:17:00,
2013-01-23 22:22:00,49.7,48.0,30.09,WNW,297,1.1,1.1,94,0.03,CLR,,0.43,WeatherDisplay:10.37,2013-01-24 06:22:00,
2013-01-23 22:27:00,50.0,48.3,30.09,NW,309,2.0,2.0,94,0.03,CLR,,0.43,WeatherDisplay:10.37,2013-01-24 06:27:00,
2013-01-23 22:32:00,50.2,48.5,30.09,WSW,250,3.5,3.5,94,0.03,CLR,,0.43,WeatherDisplay:10.37,2013-01-24 06:32:00,
2013-01-23 22:37:00,50.4,48.7,30.09,NW,305,2.0,2.0,94,0.02,CLR,,0.43,WeatherDisplay:10.37,2013-01-24 06:37:00,
2013-01-23 22:42:00,50.6,48.9,30.10,NW,322,6.9,6.9,94,0.02,CLR,,0.43,WeatherDisplay:10.37,2013-01-24 06:42:00,
2013-01-23 22:47:00,50.8,49.1,30.10,NW,316,3.5,3.5,94,0.02,CLR,,0.43,WeatherDisplay:10.37,2013-01-24 06:47:00,
2013-01-23 22:52:00,50.9,49.2,30.10,NNW,330,3.5,3.5,94,0.02,RA,,0.44,WeatherDisplay:10.37,2013-01-24 06:52:00,
2013-01-23 22:57:00,51.0,49.0,30.09,WNW,301,3.5,3.5,93,0.02,RA,,0.44,WeatherDisplay:10.37,2013-01-24 06:57:00,
2013-01-23 23:02:00,51.1,49.1,30.10,NNW,333,1.1,0.0,93,0.01,,,0.44,WeatherDisplay:10.37,2013-01-24 07:02:00,
2013-01-23 23:07:00,51.0,49.0,30.10,SW,221,1.1,0.0,93,0.01,CLR,,0.44,WeatherDisplay:10.37,2013-01-24 07:07:00,
2013-01-23 23:12:00,51.0,49.0,30.10,WNW,290,1.1,1.1,93,0.01,CLR,,0.44,WeatherDisplay:10.37,2013-01-24 07:12:00,
2013-01-23 23:17:00,51.0,49.0,30.10,WNW,291,2.3,2.3,93,0.01,CLR,,0.44,WeatherDisplay:10.37,2013-01-24 07:17:00,
2013-01-23 23:22:00,50.9,48.9,30.10,WSW,240,3.5,3.5,93,0.01,CLR,,0.44,WeatherDisplay:10.37,2013-01-24 07:22:00,
2013-01-23 23:27:00,51.0,49.0,30.10,WNW,298,3.5,3.5,93,0.01,CLR,,0.44,WeatherDisplay:10.37,2013-01-24 07:27:00,
2013-01-23 23:32:00,51.1,49.1,30.10,WNW,303,5.8,5.8,93,0.01,CLR,,0.44,WeatherDisplay:10.37,2013-01-24 07:32:00,
2013-01-23 23:37:00,51.3,49.3,30.09,NW,318,4.6,4.6,93,0.01,CLR,,0.44,WeatherDisplay:10.37,2013-01-24 07:37:00,
2013-01-23 23:42:00,51.3,49.3,30.09,North,11,1.1,0.0,93,0.01,CLR,,0.44,WeatherDisplay:10.37,2013-01-24 07:42:00,
2013-01-23 23:48:00,51.4,49.4,30.09,NNW,342,1.1,0.0,93,0.01,CLR,,0.44,WeatherDisplay:10.37,2013-01-24 07:48:00,
2013-01-23 23:53:00,51.4,49.4,30.08,WNW,294,2.3,2.3,93,0.00,CLR,,0.44,WeatherDisplay:10.37,2013-01-24 07:53:00,
2013-01-23 23:58:00,51.4,49.4,30.08,WSW,245,1.1,1.1,93,0.00,CLR,,0.44,WeatherDisplay:10.37,2013-01-24 07:58:00,